RH
76 92 100 100 92 86 100 84 100 100 96 74 74 71 79 78 44 30 26 25 25 21 23 24 26 22 21 22 21 19 14 16 20 32 24 25 23 26 30 31 33 44 49 40
54 83 87 88 90 96 93 98 100 100 96 66 82 76 77 72 48 35 28 27 27 28 25 25 24 26 24 26 24 23 20 18 19 28 22 24 22 21 26 31 34 36 42 45
46 66 81 91 100 98 82 100 100 98 99 69 72 94 71 71 53 42 40 32 32 35 32 23 23 25 24 25 24 22 22 21 21 28 42 31 26 24 25 28 32 35 38 39
36 60 76 97 100 99 74 100 100 100 94 72 70 83 76 72 54 47 42 36 35 33 35 27 21 19 19 23 22 20 21 22 22 25 33 36 34 26 24 23 25 25 31 29
38 61 79 89 99 100 74 100 100 100 96 70 72 59 91 68 57 62 47 40 34 29 27 21 18 17 16 17 21 23 21 22 22 23 26 33 37 36 31 28 24 27 30 36
38 60 80 94 100 100 82 100 100 100 100 76 60 80 100 76 79 63 66 56 45 37 33 29 23 17 13 13 16 18 20 21 22 22 23 25 31 39 39 37 33 33 32 35
33 56 81 100 95 99 90 100 98 100 100 81 68 70 100 100 74 73 75 70 50 44 35 31 25 21 18 16 13 16 18 19 20 22 23 25 27 29 35 37 36 37 37 34
40 65 87 100 94 94 99 100 97 100 100 89 68 60 100 100 100 83 82 84 77 44 36 33 33 27 22 20 19 17 16 18 19 20 21 22 22 22 23 24 26 30 32 31
43 62 87 98 91 96 100 100 100 100 100 98 71 77 90 100 100 100 86 84 94 70 67 43 40 40 35 27 23 20 19 17 17 19 21 20 19 21 22 22 23 23 23 23
44 61 92 88 90 94 100 100 100 100 100 99 64 70 84 96 100 100 100 100 79 90 86 71 60 57 54 49 45 36 27 23 24 23 24 22 22 23 23 24 24 24 25 25
45 59 81 84 88 99 100 100 100 100 100 99 78 76 87 78 94 100 100 100 100 95 77 86 94 82 71 60 54 47 60 64 55 54 43 41 40 40 43 43 50 43 41 39
47 50 68 85 88 98 100 100 100 97 100 87 76 90 80 88 75 96 100 100 100 100 99 99 94 77 68 64 67 63 61 48 51 60 53 44 45 44 48 47 49 47 50 49
47 52 68 82 87 96 98 100 100 93 98 92 65 82 93 82 75 80 91 90 99 100 100 100 100 100 100 100 96 82 77 83 89 94 93 82 61 62 58 60 59 61 64 71
44 53 68 82 93 98 95 100 100 94 96 100 66 60 69 92 62 70 85 85 85 99 100 100 100 97 98 97 100 100 99 99 100 95 91 100 95 89 84 87 94 100 99 100
46 52 73 83 94 95 91 100 100 100 100 99 87 64 59 66 82 72 72 71 74 85 95 99 92 94 94 90 86 86 91 97 100 100 100 100 100 100 100 100 100 100 100 98
51 54 70 81 89 92 81 99 100 100 100 82 100 76 68 65 69 73 72 71 69 66 74 67 65 65 68 72 73 66 62 63 68 73 91 96 85 90 88 81 80 77 68 64
45 54 65 80 85 80 67 94 100 100 99 84 87 97 72 66 64 61 62 62 65 64 69 69 64 65 77 82 70 62 64 60 54 54 59 60 60 57 54 57 54 50 47 46
54 56 65 84 77 73 67 79 97 97 86 90 74 100 97 78 68 65 65 69 64 63 71 81 78 70 74 90 86 79 72 66 60 72 66 58 49 48 48 43 41 39 44 54
58 63 66 72 75 69 66 63 81 98 96 100 100 90 90 85 74 64 62 59 61 66 67 64 66 75 82 91 80 72 67 65 61 62 62 57 55 57 56 55 61 69 73 76
54 60 67 73 76 75 60 58 65 93 100 100 100 95 59 72 80 77 67 62 62 67 69 65 67 78 82 85 82 75 67 66 76 75 71 72 70 68 69 71 67 67 73 75
38 53 71 86 85 78 54 61 58 88 100 100 100 99 82 68 70 74 75 77 80 72 64 55 69 85 65 54 66 87 94 67 61 60 63 64 64 67 71 71 73 70 67 69
43 64 82 88 84 73 57 54 61 70 98 100 100 100 88 97 76 61 74 65 73 85 76 77 100 76 62 58 75 78 81 78 74 68 63 62 61 67 73 73 70 74 81 83
38 50 56 73 68 60 64 64 66 53 64 92 100 100 89 83 95 88 68 63 67 91 95 100 99 83 80 77 80 83 83 77 72 71 74 76 76 72 68 68 70 68 67 69
27 33 50 60 64 58 72 83 91 84 62 49 65 81 85 79 86 91 91 95 93 85 100 100 76 78 84 78 68 66 71 77 80 82 83 83 80 74 73 73 74 80 85 87
23 29 38 60 73 70 82 86 92 97 89 60 50 59 69 80 77 89 92 96 98 100 100 98 99 94 99 100 100 100 100 100 97 94 90 82 82 86 88 89 93 98 96 94
25 23 37 56 67 76 82 82 87 92 86 82 72 66 62 60 62 71 80 90 96 99 92 87 88 92 91 90 92 95 99 100 99 97 93 93 92 90 91 91 91 92 96 97
21 26 35 54 62 76 87 86 83 88 88 84 89 84 81 82 70 66 66 67 68 70 76 84 91 93 88 86 85 90 94 96 95 96 95 92 88 88 88 91 92 88 86 83
Wind_Speed
63 63 61 53 42 37 30 20 19 22 22 17 18 20 16 13 13 18 21 24 28 31 39 42 45 53 58 64 74 80 81 78 77 76 72 72 70 68 65 58 57 58 60 53
65 64 60 52 42 36 29 19 18 19 18 15 15 12 10 6 13 20 23 27 31 31 36 37 47 51 55 62 71 78 78 76 73 70 69 67 63 62 63 64 66 62 59 61
66 63 58 49 43 36 29 20 19 17 17 14 10 5 4 6 13 18 19 20 22 25 25 35 41 46 51 60 71 78 79 77 72 70 70 68 65 68 71 70 63 65 63 65
65 61 54 47 44 34 28 20 19 17 13 16 12 7 2 12 14 16 19 20 20 25 25 25 30 39 44 51 64 73 75 75 73 71 71 71 70 65 64 61 67 61 67 62
67 63 56 48 44 34 28 22 20 17 10 19 18 13 6 15 16 17 18 17 19 20 21 25 32 36 41 45 56 67 74 75 73 71 70 69 68 66 63 63 65 64 68 69
69 61 56 49 44 35 30 25 20 17 12 21 19 15 9 9 18 19 19 19 18 17 18 19 21 27 35 40 44 56 70 74 73 72 71 68 65 67 69 68 67 69 67 75
68 62 56 51 44 36 31 26 21 19 15 25 25 20 17 11 11 22 20 19 20 20 20 19 20 23 28 33 39 43 51 67 73 72 71 68 71 70 69 69 70 70 74 75
70 66 60 53 45 38 32 28 23 20 16 29 29 25 21 17 13 14 24 23 20 20 20 21 21 20 24 29 33 37 41 46 56 67 73 75 76 76 75 74 74 74 75 75
73 68 62 56 47 40 35 30 25 22 17 35 33 30 25 23 18 14 14 26 27 24 21 20 20 21 21 23 26 31 36 41 44 49 56 65 71 71 72 73 75 75 76 76
73 69 65 57 50 44 37 32 27 23 21 33 39 35 28 31 24 21 17 12 17 25 25 24 24 23 21 20 19 19 23 26 31 34 38 43 46 51 54 57 61 61 63 62
77 71 64 58 52 45 39 34 29 24 20 27 46 39 37 33 31 24 24 18 14 13 20 26 27 24 24 24 24 25 25 24 24 26 29 31 33 34 34 36 37 40 42 43
77 72 65 60 53 47 41 36 30 24 19 22 49 45 41 38 36 32 28 25 23 19 18 18 18 19 23 27 28 28 29 30 31 32 33 33 35 36 37 39 41 42 44 47
78 73 66 59 54 48 43 38 32 25 21 17 46 51 46 41 41 37 35 31 27 25 26 25 23 18 17 17 17 19 23 26 29 31 31 33 37 39 40 40 42 43 43 43
77 73 67 61 56 50 45 39 33 26 23 19 35 49 51 46 43 39 38 35 33 29 30 29 29 29 28 23 23 25 26 24 24 26 27 27 28 30 33 34 36 38 40 41
78 74 70 63 58 53 48 42 35 28 25 22 21 40 51 50 49 47 42 41 40 39 33 32 32 31 30 29 27 27 26 27 30 32 34 37 37 36 37 41 44 45 46 47
79 77 73 67 62 56 50 44 38 32 28 24 20 25 42 51 50 51 49 46 44 44 42 40 37 37 36 35 37 35 37 37 38 38 39 39 40 43 46 49 49 50 51 52
81 79 74 68 64 59 53 47 45 39 32 25 22 18 22 38 47 48 48 50 48 45 45 47 47 45 41 41 43 45 46 46 47 47 46 48 50 48 49 50 52 54 57 58
85 82 77 71 68 62 57 52 48 41 35 28 23 21 20 21 31 41 46 46 44 46 46 45 44 43 42 41 46 49 49 47 46 44 46 51 55 56 53 51 53 55 55 54
87 84 80 74 70 66 60 58 51 46 40 34 32 30 26 22 19 19 26 34 38 41 42 41 40 40 39 45 48 46 43 43 42 43 45 46 48 49 48 48 46 43 41 40
89 86 81 75 71 68 65 62 55 49 43 40 37 34 30 26 22 19 18 19 22 29 34 36 37 41 44 44 43 41 37 30 31 31 32 33 34 35 35 36 35 35 37 40
89 86 82 80 77 75 71 65 59 53 49 46 44 40 35 32 30 26 23 22 21 22 24 22 29 38 35 23 21 20 25 24 23 24 26 28 29 30 31 33 37 40 44 47
88 89 89 89 85 80 75 68 61 56 53 50 49 47 42 39 35 32 31 27 24 23 25 23 29 31 24 22 24 24 25 26 27 28 28 30 32 34 38 41 44 47 50 54
91 97 96 93 89 83 75 68 63 60 63 64 61 56 52 47 44 40 36 33 31 32 31 32 34 31 30 28 28 29 31 33 33 34 35 37 39 43 46 49 52 56 60 63
91 96 97 97 90 83 76 74 73 72 72 70 66 61 55 51 48 45 41 39 39 37 41 43 39 38 38 38 37 37 38 40 41 43 45 47 49 52 55 58 62 65 69 72
86 91 96 95 90 85 83 81 79 77 76 73 69 65 61 58 53 50 48 47 45 48 51 49 47 47 46 47 47 47 48 49 52 53 55 56 57 60 63 66 70 73 76 80
86 91 93 94 91 89 86 85 83 82 79 75 72 69 66 64 60 58 56 54 55 57 56 54 53 54 54 55 55 56 57 57 59 60 62 63 66 69 72 74 78 81 84 87
81 84 89 93 92 92 91 88 87 84 82 79 76 74 72 69 67 64 64 65 65 63 62 61 61 62 61 62 63 64 65 66 67 68 71 73 75 77 80 82 84 86 89 92
Wind_Direction
206 210 218 223 229 236 243 250 267 287 296 290 288 316 345 12 55 77 91 101 108 123 135 148 161 171 176 181 183 187 190 193 193 194 196 200 202 206 211 216 222 223 227 235
205 208 213 219 226 228 237 242 257 276 291 269 274 311 2 55 89 100 108 114 124 131 144 156 168 175 180 183 186 190 195 197 199 199 200 203 207 211 215 219 224 229 233 239
202 203 208 212 220 223 229 232 249 263 289 246 251 293 12 144 117 122 121 126 131 137 147 160 168 177 183 188 191 193 197 201 201 202 205 208 212 213 217 221 227 233 236 241
200 198 203 205 213 217 221 223 241 256 282 228 216 229 292 170 142 137 139 145 146 146 148 157 175 180 185 193 196 198 200 204 206 208 210 213 217 219 222 225 230 237 243 249
200 197 200 201 211 213 213 219 233 245 262 218 219 217 233 168 166 153 158 163 154 150 151 164 170 180 187 192 197 201 204 207 210 213 216 218 222 224 227 229 233 237 242 246
197 195 196 200 208 207 207 216 226 231 240 210 205 179 160 161 174 172 168 170 168 164 163 170 180 184 190 195 197 204 207 210 213 216 219 222 225 228 230 233 237 241 245 248
195 192 194 200 203 205 204 211 217 225 232 211 199 184 157 152 161 185 176 180 178 176 172 174 176 188 192 197 199 200 206 213 216 219 221 224 228 230 233 235 239 242 245 250
194 192 194 197 199 201 202 207 214 221 224 208 198 193 177 165 156 173 187 187 185 187 182 177 174 178 187 193 199 203 205 208 214 220 223 226 230 233 235 238 242 245 248 252
191 189 192 196 198 198 200 206 210 220 216 207 198 194 187 170 171 170 179 195 199 194 190 190 188 182 185 187 193 200 205 211 214 217 222 227 232 235 239 241 244 247 251 255
190 189 193 196 197 197 199 205 209 215 212 209 200 191 195 181 175 173 166 183 188 201 203 199 198 195 194 195 194 199 204 209 213 219 223 227 231 235 240 243 248 250 252 256
192 193 193 194 195 194 196 202 207 211 211 213 201 194 195 194 183 178 177 180 184 190 195 204 210 211 212 210 209 204 203 214 215 217 219 220 223 225 228 234 240 243 247 250
192 190 192 194 194 193 194 200 204 207 208 217 201 198 198 199 197 188 183 187 187 186 185 181 187 200 215 218 217 219 223 224 225 228 232 232 235 240 242 245 247 249 252 257
192 192 191 193 192 193 193 197 203 204 203 212 204 203 203 201 204 202 197 194 192 197 193 193 193 193 196 207 218 223 219 224 226 230 231 233 239 243 246 248 250 252 254 256
192 192 192 192 191 193 194 197 201 200 198 204 205 207 208 208 206 202 208 206 203 201 203 206 207 208 211 212 216 222 228 231 236 236 240 242 241 241 246 251 254 256 259 262
194 193 192 192 192 193 194 194 199 197 197 197 203 209 211 213 216 215 211 210 212 211 213 216 219 221 224 224 228 232 233 236 236 240 241 243 246 250 250 250 249 252 256 259
194 195 192 192 192 193 194 192 198 198 200 193 197 205 211 215 219 223 224 221 219 219 221 223 228 232 234 237 240 241 240 244 244 246 243 243 249 250 251 253 256 260 263 264
196 196 193 192 194 193 194 195 201 201 198 192 186 194 206 212 217 221 224 228 230 231 226 228 232 233 235 241 250 248 248 249 247 248 251 253 254 253 257 258 261 263 266 268
195 197 195 194 196 195 196 199 201 201 200 197 193 197 201 203 212 219 223 225 228 230 231 233 236 235 236 242 246 248 246 247 245 248 247 250 256 259 260 259 261 264 271 275
196 198 197 196 197 197 200 202 200 201 201 201 206 202 201 201 204 208 216 222 224 229 233 235 237 241 242 242 250 252 253 253 252 252 253 256 257 259 260 265 269 268 270 273
199 198 198 198 198 201 203 204 201 201 202 205 213 212 207 202 204 204 198 198 206 217 225 228 229 235 237 237 240 244 249 255 257 253 252 252 255 258 260 262 266 272 275 278
202 200 199 202 203 203 203 204 203 202 205 208 213 213 211 209 205 204 206 205 202 202 208 210 217 222 228 226 234 239 240 244 249 251 253 257 260 265 269 272 275 276 279 282
203 202 202 205 205 204 205 205 205 205 209 213 216 218 214 215 215 211 211 211 212 218 224 225 230 235 237 235 239 246 253 257 261 264 266 267 270 273 274 275 278 280 282 283
205 206 206 206 207 206 204 205 207 208 211 216 218 217 218 216 218 217 219 221 218 223 229 231 238 244 246 248 250 253 256 260 264 266 269 271 272 274 276 278 280 282 284 286
207 208 208 210 209 208 206 207 209 211 215 217 220 221 221 222 223 225 226 226 229 233 236 238 242 245 247 250 253 256 260 264 267 270 272 273 275 277 279 281 283 284 286 288
210 210 210 211 209 210 211 211 212 215 218 220 221 222 223 225 226 228 231 233 235 237 239 242 246 251 254 257 259 261 262 264 266 269 271 274 277 279 280 282 284 286 287 289
212 213 212 213 213 213 214 216 216 218 220 222 224 226 228 229 230 231 233 236 238 241 244 247 250 253 256 259 261 263 265 267 269 271 274 276 277 279 281 283 285 287 289 290
215 214 213 215 216 217 218 219 221 222 223 224 226 228 230 231 233 234 236 238 242 246 249 251 252 253 256 259 262 264 266 268 270 272 274 276 278 280 282 285 286 288 290 291